EWG94PJ EDDS-EPWA

Flight info

Callsign EWG94PJ
Flight time 1h 17m
Altitude 23000
Route DKB9B/25 DKB N869 AMOSA/N0451F370 N869 ANELA Z715 KULOK L984 OKG DCT BALTU DCT LEGAZ DCT LAGAR DCT OKENO Q277 AGAVA
Aircraft A320/M-SDE3FGHIRWY/LB1

Departure

Time 2026-05-07 19:07
Airport Stuttgart Airport (EDDS)

Arrival

Time 2026-05-07 20:25
Airport Warsaw Chopin Airport (EPWA)
Time Latitude Longitude Altitude Speed Heading
2026-05-07 18:41 48.68915 9.19515 1315 ft 0 kts 343°
2026-05-07 18:56 48.68904 9.19520 1314 ft 4 kts 342°
2026-05-07 18:56 48.68879 9.19528 1313 ft 4 kts 13°
2026-05-07 18:56 48.68857 9.19517 1312 ft 4 kts 27°
2026-05-07 18:57 48.68836 9.19494 1312 ft 4 kts 50°
2026-05-07 18:57 48.68822 9.19461 1312 ft 4 kts 70°
2026-05-07 18:57 48.68819 9.19447 1312 ft 1 kts 73°
2026-05-07 18:59 48.68821 9.19454 1312 ft 1 kts 73°
2026-05-07 19:00 48.68837 9.19541 1310 ft 15 kts 74°
2026-05-07 19:00 48.68869 9.19713 1307 ft 19 kts 74°
2026-05-07 19:00 48.68879 9.19876 1302 ft 16 kts 130°
2026-05-07 19:00 48.68808 9.19930 1296 ft 9 kts 139°
2026-05-07 19:01 48.68826 9.20000 1295 ft 8 kts 56°
2026-05-07 19:01 48.68848 9.20084 1293 ft 10 kts 74°
2026-05-07 19:01 48.68873 9.20216 1290 ft 19 kts 74°
2026-05-07 19:01 48.68915 9.20444 1285 ft 25 kts 75°
2026-05-07 19:02 48.68968 9.20713 1279 ft 28 kts 74°
2026-05-07 19:02 48.69018 9.20985 1271 ft 28 kts 74°
2026-05-07 19:02 48.69068 9.21246 1268 ft 24 kts 74°
2026-05-07 19:02 48.69118 9.21506 1259 ft 27 kts 74°
2026-05-07 19:03 48.69173 9.21795 1254 ft 30 kts 74°
2026-05-07 19:03 48.69225 9.22076 1258 ft 26 kts 74°
2026-05-07 19:03 48.69273 9.22325 1240 ft 26 kts 74°
2026-05-07 19:03 48.69321 9.22583 1236 ft 25 kts 75°
2026-05-07 19:04 48.69373 9.22849 1229 ft 27 kts 74°
2026-05-07 19:04 48.69427 9.23137 1225 ft 29 kts 74°
2026-05-07 19:04 48.69479 9.23418 1251 ft 27 kts 75°
2026-05-07 19:04 48.69525 9.23649 1262 ft 19 kts 71°
2026-05-07 19:05 48.69554 9.23798 1269 ft 12 kts 74°
2026-05-07 19:05 48.69575 9.23915 1271 ft 13 kts 75°
2026-05-07 19:05 48.69606 9.24081 1271 ft 20 kts 74°
2026-05-07 19:05 48.69564 9.24271 1262 ft 24 kts 127°
2026-05-07 19:06 48.69404 9.24346 1190 ft 11 kts 189°
2026-05-07 19:06 48.69316 9.23915 1200 ft 76 kts 253°
2026-05-07 19:06 48.69109 9.22824 1221 ft 137 kts 253°
2026-05-07 19:07 48.68826 9.21232 1478 ft 164 kts 256°
2026-05-07 19:07 48.68545 9.19543 2222 ft 166 kts 256°
2026-05-07 19:07 48.68222 9.17860 2963 ft 168 kts 254°
2026-05-07 19:07 48.67853 9.16085 3329 ft 186 kts 254°
2026-05-07 19:08 48.67446 9.14121 3665 ft 206 kts 253°
2026-05-07 19:08 48.67012 9.11910 4004 ft 231 kts 261°
2026-05-07 19:08 48.67226 9.09467 4560 ft 244 kts 298°
2026-05-07 19:08 48.68196 9.07392 5387 ft 246 kts 311°
2026-05-07 19:09 48.69632 9.05983 6166 ft 256 kts 341°
2026-05-07 19:09 48.71457 9.05746 6742 ft 273 kts
2026-05-07 19:09 48.73232 9.06856 7498 ft 282 kts 37°
2026-05-07 19:09 48.74490 9.09156 8300 ft 289 kts 60°
2026-05-07 19:10 48.75456 9.11853 9146 ft 293 kts 62°
2026-05-07 19:10 48.76419 9.14601 9970 ft 298 kts 62°
2026-05-07 19:10 48.77412 9.17440 10461 ft 314 kts 62°
2026-05-07 19:10 48.78476 9.20474 10705 ft 338 kts 62°
2026-05-07 19:11 48.79609 9.23698 11092 ft 353 kts 61°
2026-05-07 19:11 48.80762 9.26973 11777 ft 358 kts 61°
2026-05-07 19:11 48.81942 9.30323 12509 ft 362 kts 61°
2026-05-07 19:11 48.83134 9.33707 13248 ft 365 kts 61°
2026-05-07 19:12 48.84338 9.37130 13969 ft 369 kts 61°
2026-05-07 19:12 48.85554 9.40594 14621 ft 373 kts 61°
2026-05-07 19:12 48.86779 9.44087 15227 ft 377 kts 61°
2026-05-07 19:12 48.88021 9.47636 15822 ft 382 kts 61°
2026-05-07 19:13 48.89262 9.51184 16414 ft 386 kts 61°
2026-05-07 19:13 48.90528 9.54811 17005 ft 391 kts 61°
2026-05-07 19:13 48.91807 9.58484 17587 ft 395 kts 61°
2026-05-07 19:13 48.93097 9.62198 18165 ft 400 kts 61°
2026-05-07 19:14 48.94402 9.65960 18671 ft 404 kts 61°
2026-05-07 19:14 48.95721 9.69761 19175 ft 408 kts 61°
2026-05-07 19:14 48.97053 9.73599 19681 ft 411 kts 60°
2026-05-07 19:14 48.98389 9.77454 20201 ft 414 kts 60°
2026-05-07 19:15 48.99739 9.81357 20702 ft 417 kts 60°
2026-05-07 19:15 49.01094 9.85272 21221 ft 419 kts 60°
2026-05-07 19:15 49.02454 9.89215 21722 ft 422 kts 61°
2026-05-07 19:15 49.03823 9.93198 22206 ft 425 kts 61°
2026-05-07 19:16 49.05200 9.97204 22693 ft 428 kts 61°
2026-05-07 19:16 49.06586 10.01242 23022 ft 430 kts 61°
2026-05-07 19:16 49.07951 10.05226 23081 ft 430 kts 61°
2026-05-07 19:16 49.09334 10.09276 23084 ft 429 kts 61°
2026-05-07 19:17 49.10701 10.13295 23086 ft 428 kts 61°
2026-05-07 19:17 49.12075 10.17335 23087 ft 427 kts 61°
2026-05-07 19:17 49.13476 10.21332 23084 ft 426 kts 57°
2026-05-07 19:17 49.15176 10.25031 23089 ft 426 kts 48°
2026-05-07 19:18 49.17186 10.28337 23092 ft 424 kts 43°
2026-05-07 19:18 49.19265 10.31548 23092 ft 425 kts 43°
2026-05-07 19:18 49.21337 10.34763 23112 ft 425 kts 43°
2026-05-07 19:18 49.23412 10.37987 23091 ft 425 kts 43°
2026-05-07 19:19 49.25490 10.41200 23090 ft 425 kts 43°
2026-05-07 19:19 49.27583 10.44408 23100 ft 425 kts 43°
2026-05-07 19:19 49.29671 10.47593 23082 ft 422 kts 43°
2026-05-07 19:19 49.31748 10.50760 23083 ft 421 kts 43°
2026-05-07 19:20 49.33822 10.53925 23082 ft 420 kts 43°
2026-05-07 19:20 49.35888 10.57106 23082 ft 420 kts 44°
2026-05-07 19:20 49.37924 10.60339 23082 ft 420 kts 45°
2026-05-07 19:20 49.39929 10.63601 23082 ft 420 kts 45°
2026-05-07 19:21 49.41902 10.66842 23083 ft 421 kts 45°
2026-05-07 19:21 49.43919 10.70113 23085 ft 420 kts 44°
2026-05-07 19:21 49.45955 10.73351 23087 ft 420 kts 44°
2026-05-07 19:21 49.47999 10.76562 23087 ft 420 kts 44°
2026-05-07 19:22 49.49357 10.78686 23083 ft 419 kts 44°
2026-05-07 19:22 49.51403 10.81885 23082 ft 418 kts 44°
2026-05-07 19:22 49.53438 10.85072 23083 ft 418 kts 44°
2026-05-07 19:22 49.55473 10.88279 23082 ft 418 kts 44°
2026-05-07 19:23 49.57505 10.91499 23082 ft 418 kts 45°
2026-05-07 19:23 49.59529 10.94717 23083 ft 418 kts 45°
2026-05-07 19:23 49.61555 10.97944 23086 ft 418 kts 45°
2026-05-07 19:23 49.63575 11.01166 23082 ft 418 kts 45°
2026-05-07 19:24 49.65594 11.04391 23080 ft 418 kts 45°
2026-05-07 19:24 49.67615 11.07619 23082 ft 418 kts 45°
2026-05-07 19:24 49.69633 11.10846 23077 ft 417 kts 45°
2026-05-07 19:24 49.71646 11.14060 23076 ft 417 kts 45°
2026-05-07 19:25 49.73659 11.17279 23074 ft 417 kts 45°
2026-05-07 19:25 49.75685 11.20523 23373 ft 419 kts 44°
2026-05-07 19:25 49.77851 11.23544 23831 ft 420 kts 36°
2026-05-07 19:25 49.80189 11.26199 24232 ft 422 kts 34°
2026-05-07 19:26 49.82569 11.28879 24634 ft 424 kts 34°
2026-05-07 19:26 49.84978 11.31592 25015 ft 426 kts 34°
2026-05-07 19:26 49.87371 11.34299 25403 ft 428 kts 35°
2026-05-07 19:26 49.89779 11.37032 25799 ft 430 kts 35°
2026-05-07 19:27 49.92191 11.39784 26191 ft 432 kts 36°
2026-05-07 19:27 49.94442 11.42889 26561 ft 435 kts 44°
2026-05-07 19:27 49.96514 11.46330 26952 ft 437 kts 51°
2026-05-07 19:27 49.98038 11.50415 27331 ft 441 kts 67°
2026-05-07 19:28 49.98795 11.54984 27679 ft 445 kts 80°
2026-05-07 19:28 49.99253 11.59750 28029 ft 447 kts 81°
2026-05-07 19:28 49.99701 11.64552 28376 ft 449 kts 81°
2026-05-07 19:28 50.00144 11.69366 28713 ft 451 kts 81°
2026-05-07 19:29 50.00588 11.74217 29057 ft 453 kts 81°
2026-05-07 19:29 50.01031 11.79069 29389 ft 455 kts 81°
2026-05-07 19:29 50.01474 11.83947 29698 ft 456 kts 81°
2026-05-07 19:29 50.01920 11.88843 29999 ft 458 kts 81°
2026-05-07 19:30 50.02366 11.93763 30289 ft 460 kts 81°
2026-05-07 19:30 50.02812 11.98703 30552 ft 462 kts 81°
2026-05-07 19:30 50.03261 12.03656 30863 ft 462 kts 81°
2026-05-07 19:30 50.03707 12.08616 31167 ft 463 kts 81°
2026-05-07 19:31 50.04152 12.13577 31464 ft 463 kts 81°
2026-05-07 19:31 50.04595 12.18543 31765 ft 464 kts 81°
2026-05-07 19:31 50.05032 12.23515 32075 ft 464 kts 81°
2026-05-07 19:31 50.05460 12.28425 32375 ft 464 kts 81°
2026-05-07 19:32 50.05894 12.33412 32671 ft 465 kts 82°
2026-05-07 19:32 50.06326 12.38406 32977 ft 465 kts 82°
2026-05-07 19:32 50.06699 12.43413 33274 ft 466 kts 84°
2026-05-07 19:32 50.06941 12.48455 33546 ft 467 kts 86°
2026-05-07 19:33 50.07080 12.53513 33842 ft 468 kts 88°
2026-05-07 19:33 50.07168 12.58579 34135 ft 468 kts 89°
2026-05-07 19:33 50.07245 12.63638 34396 ft 468 kts 89°
2026-05-07 19:33 50.07338 12.68714 34658 ft 468 kts 88°
2026-05-07 19:34 50.07452 12.73719 34912 ft 468 kts 88°
2026-05-07 19:34 50.07587 12.78785 35148 ft 469 kts 88°
2026-05-07 19:34 50.07733 12.83855 35383 ft 469 kts 88°
2026-05-07 19:34 50.07878 12.88921 35617 ft 469 kts 88°
2026-05-07 19:35 50.08019 12.94001 35829 ft 469 kts 88°
2026-05-07 19:35 50.08154 12.99084 36042 ft 470 kts 88°
2026-05-07 19:35 50.08282 13.04169 36259 ft 470 kts 89°
2026-05-07 19:35 50.08407 13.09254 36472 ft 470 kts 89°
2026-05-07 19:36 50.08530 13.14354 36672 ft 470 kts 89°
2026-05-07 19:36 50.08647 13.19439 36887 ft 470 kts 89°
2026-05-07 19:36 50.08765 13.24544 37012 ft 472 kts 88°
2026-05-07 19:36 50.09181 13.29614 37045 ft 473 kts 78°
2026-05-07 19:37 50.11512 13.39079 37045 ft 473 kts 59°
2026-05-07 19:37 50.14986 13.47796 37043 ft 473 kts 58°
2026-05-07 19:38 50.18441 13.56541 37048 ft 473 kts 58°
2026-05-07 19:38 50.21885 13.65318 37050 ft 473 kts 58°
2026-05-07 19:39 50.25320 13.74104 37053 ft 474 kts 58°
2026-05-07 19:39 50.28752 13.82893 37054 ft 474 kts 58°
2026-05-07 19:40 50.32193 13.91695 37058 ft 474 kts 58°
2026-05-07 19:40 50.35620 14.00513 37048 ft 474 kts 59°
2026-05-07 19:41 50.39017 14.09296 37050 ft 474 kts 59°
2026-05-07 19:41 50.42442 14.18163 37052 ft 475 kts 59°
2026-05-07 19:42 50.45860 14.27049 37058 ft 475 kts 59°
2026-05-07 19:42 50.49259 14.35927 37053 ft 475 kts 59°
2026-05-07 19:43 50.52646 14.44800 37050 ft 475 kts 59°
2026-05-07 19:43 50.56041 14.53705 37052 ft 474 kts 59°
2026-05-07 19:44 50.59429 14.62630 37035 ft 475 kts 59°
2026-05-07 19:44 50.62810 14.71579 37035 ft 475 kts 59°
2026-05-07 19:45 50.66086 14.80625 37045 ft 475 kts 66°
2026-05-07 19:45 50.68463 14.90262 37049 ft 474 kts 70°
2026-05-07 19:46 50.70804 14.99986 37043 ft 474 kts 70°
2026-05-07 19:46 50.73146 15.09728 37046 ft 474 kts 70°
2026-05-07 19:47 50.75468 15.19504 37024 ft 475 kts 70°
2026-05-07 19:47 50.77779 15.29291 37027 ft 475 kts 70°
2026-05-07 19:48 50.80097 15.39074 37041 ft 475 kts 70°
2026-05-07 19:48 50.82557 15.48780 37042 ft 475 kts 69°
2026-05-07 19:49 50.85097 15.58430 37048 ft 475 kts 68°
2026-05-07 19:49 50.87591 15.68046 37053 ft 475 kts 69°
2026-05-07 19:50 50.90054 15.77773 37041 ft 475 kts 70°
2026-05-07 19:50 50.92495 15.87505 37053 ft 475 kts 70°
2026-05-07 19:51 50.94893 15.97263 37056 ft 474 kts 74°
2026-05-07 19:51 50.96760 16.07299 37054 ft 474 kts 76°
2026-05-07 19:52 50.98502 16.17383 37067 ft 474 kts 77°
2026-05-07 19:52 51.00224 16.27483 37043 ft 474 kts 77°
2026-05-07 19:53 51.01976 16.37568 37056 ft 474 kts 76°
2026-05-07 19:53 51.03730 16.47592 37061 ft 473 kts 77°
2026-05-07 19:54 51.05476 16.57675 37064 ft 473 kts 77°
2026-05-07 19:54 51.07205 16.67772 37066 ft 473 kts 77°
2026-05-07 19:55 51.08925 16.77884 37071 ft 473 kts 77°
2026-05-07 19:55 51.10640 16.88004 37079 ft 474 kts 78°
2026-05-07 19:56 51.12381 16.98128 37079 ft 475 kts 76°
2026-05-07 19:56 51.14503 17.08065 37079 ft 477 kts 72°
2026-05-07 19:57 51.16859 17.17940 37076 ft 477 kts 72°
2026-05-07 19:57 51.19158 17.27853 37071 ft 477 kts 73°
2026-05-07 19:58 51.21353 17.37824 37038 ft 476 kts 73°
2026-05-07 19:58 51.23525 17.47824 37050 ft 477 kts 74°
2026-05-07 19:59 51.25707 17.57813 37059 ft 477 kts 73°
2026-05-07 19:59 51.27898 17.67805 37065 ft 477 kts 73°
2026-05-07 20:00 51.30082 17.77819 37069 ft 477 kts 74°
2026-05-07 20:00 51.32236 17.87796 37068 ft 477 kts 74°
2026-05-07 20:01 51.34386 17.97819 37033 ft 476 kts 74°
2026-05-07 20:01 51.36531 18.07845 37042 ft 476 kts 74°
2026-05-07 20:02 51.38667 18.17892 37054 ft 477 kts 74°
2026-05-07 20:02 51.40800 18.27956 37056 ft 477 kts 75°
2026-05-07 20:03 51.41861 18.32992 36850 ft 477 kts 75°
2026-05-07 20:03 51.42922 18.38028 36592 ft 476 kts 75°
2026-05-07 20:03 51.43968 18.42991 36342 ft 476 kts 75°
2026-05-07 20:03 51.45027 18.48025 36091 ft 476 kts 75°
2026-05-07 20:04 51.46083 18.53068 35841 ft 477 kts 76°
2026-05-07 20:04 51.47136 18.58122 35549 ft 478 kts 76°
2026-05-07 20:04 51.48185 18.63186 35326 ft 480 kts 76°
2026-05-07 20:04 51.49240 18.68288 35088 ft 482 kts 77°
2026-05-07 20:05 51.50295 18.73398 34841 ft 482 kts 77°
2026-05-07 20:05 51.51351 18.78518 33958 ft 485 kts 77°
2026-05-07 20:05 51.52409 18.83670 32870 ft 487 kts 78°
2026-05-07 20:05 51.53472 18.88867 31777 ft 493 kts 78°
2026-05-07 20:06 51.54545 18.94137 30699 ft 498 kts 78°
2026-05-07 20:06 51.55620 18.99414 29982 ft 494 kts 78°
2026-05-07 20:06 51.56684 19.04601 29192 ft 481 kts 78°
2026-05-07 20:06 51.57719 19.09605 28533 ft 463 kts 78°
2026-05-07 20:07 51.58713 19.14442 27882 ft 459 kts 78°
2026-05-07 20:07 51.59699 19.19309 27241 ft 455 kts 78°
2026-05-07 20:07 51.60668 19.24137 26598 ft 452 kts 78°
2026-05-07 20:07 51.61629 19.28952 25954 ft 449 kts 78°
2026-05-07 20:08 51.62581 19.33722 25316 ft 446 kts 78°
2026-05-07 20:08 51.63211 19.36877 24899 ft 444 kts 78°
2026-05-07 20:08 51.64152 19.41596 24280 ft 441 kts 78°
2026-05-07 20:08 51.65087 19.46290 23672 ft 439 kts 78°
2026-05-07 20:09 51.66315 19.52459 22856 ft 432 kts 77°
2026-05-07 20:09 51.66920 19.55512 22501 ft 429 kts 77°
2026-05-07 20:09 51.67820 19.60067 21986 ft 423 kts 77°
2026-05-07 20:10 51.69577 19.68989 20962 ft 413 kts 77°
2026-05-07 20:10 51.70443 19.73393 20451 ft 408 kts 76°
2026-05-07 20:10 51.71295 19.77741 19956 ft 405 kts 76°
2026-05-07 20:10 51.72139 19.82054 19463 ft 402 kts 76°
2026-05-07 20:11 51.72976 19.86351 18946 ft 401 kts 76°
2026-05-07 20:11 51.73809 19.90649 18427 ft 400 kts 76°
2026-05-07 20:11 51.74629 19.94880 17851 ft 400 kts 76°
2026-05-07 20:11 51.75458 19.99158 17314 ft 398 kts 75°
2026-05-07 20:12 51.76281 20.03402 16778 ft 396 kts 75°
2026-05-07 20:12 51.77100 20.07632 16243 ft 394 kts 75°
2026-05-07 20:12 51.77915 20.11853 15706 ft 392 kts 75°
2026-05-07 20:12 51.78718 20.16012 15170 ft 380 kts 75°
2026-05-07 20:13 51.79496 20.20066 14666 ft 377 kts 74°
2026-05-07 20:13 51.80271 20.24109 14135 ft 376 kts 74°
2026-05-07 20:13 51.81043 20.28158 13588 ft 376 kts 74°
2026-05-07 20:13 51.81799 20.32138 13049 ft 373 kts 74°
2026-05-07 20:14 51.82556 20.36130 12515 ft 370 kts 73°
2026-05-07 20:14 51.83308 20.40102 11988 ft 368 kts 73°
2026-05-07 20:14 51.84051 20.44041 11453 ft 365 kts 73°
2026-05-07 20:14 51.84794 20.47973 10901 ft 363 kts 73°
2026-05-07 20:15 51.85527 20.51843 10460 ft 351 kts 73°
2026-05-07 20:15 51.86212 20.55476 10332 ft 325 kts 73°
2026-05-07 20:15 51.86850 20.58864 10029 ft 308 kts 73°
2026-05-07 20:15 51.87464 20.62137 9742 ft 301 kts 73°
2026-05-07 20:16 51.88071 20.65387 9623 ft 300 kts 73°
2026-05-07 20:16 51.88674 20.68616 9485 ft 300 kts 73°
2026-05-07 20:16 51.89278 20.71859 9001 ft 302 kts 73°
2026-05-07 20:16 51.89882 20.75113 8635 ft 299 kts 73°
2026-05-07 20:17 51.90473 20.78302 8106 ft 299 kts 73°
2026-05-07 20:17 51.91062 20.81490 7480 ft 294 kts 73°
2026-05-07 20:17 51.91647 20.84636 6903 ft 289 kts 73°
2026-05-07 20:17 51.92212 20.87680 6642 ft 273 kts 73°
2026-05-07 20:18 51.92746 20.90567 6312 ft 265 kts 72°
2026-05-07 20:18 51.93272 20.93418 5922 ft 264 kts 73°
2026-05-07 20:18 51.93798 20.96275 5484 ft 264 kts 73°
2026-05-07 20:18 51.94316 20.99118 5088 ft 259 kts 73°
2026-05-07 20:19 51.94817 21.01874 4689 ft 251 kts 73°
2026-05-07 20:19 51.95333 21.04545 4238 ft 246 kts 65°
2026-05-07 20:19 51.96211 21.06820 4048 ft 230 kts 46°
2026-05-07 20:19 51.97370 21.08428 3972 ft 211 kts 30°
2026-05-07 20:20 51.98631 21.09381 3873 ft 190 kts 15°
2026-05-07 20:20 51.99895 21.09767 3705 ft 182 kts
2026-05-07 20:20 52.01113 21.09670 3519 ft 170 kts 348°
2026-05-07 20:20 52.02218 21.09160 3324 ft 161 kts 336°
2026-05-07 20:21 52.03200 21.08354 3137 ft 157 kts 331°
2026-05-07 20:21 52.04180 21.07506 2934 ft 161 kts 331°
2026-05-07 20:21 52.05176 21.06642 2726 ft 163 kts 332°
2026-05-07 20:21 52.06177 21.05772 2496 ft 163 kts 333°
2026-05-07 20:22 52.07174 21.04906 2274 ft 161 kts 333°
2026-05-07 20:22 52.08141 21.04065 2087 ft 159 kts 333°
2026-05-07 20:22 52.09072 21.03254 1852 ft 144 kts 334°
2026-05-07 20:22 52.09935 21.02503 1656 ft 138 kts 334°
2026-05-07 20:23 52.10780 21.01767 1467 ft 137 kts 334°
2026-05-07 20:23 52.11618 21.01038 1278 ft 136 kts 334°
2026-05-07 20:23 52.12447 21.00315 1089 ft 135 kts 333°
2026-05-07 20:23 52.13275 20.99594 901 ft 134 kts 333°
2026-05-07 20:24 52.14093 20.98880 716 ft 133 kts 332°
2026-05-07 20:24 52.14911 20.98168 534 ft 133 kts 333°
2026-05-07 20:24 52.15712 20.97464 371 ft 132 kts 333°
2026-05-07 20:24 52.16464 20.96818 339 ft 108 kts 332°
2026-05-07 20:25 52.16910 20.96430 336 ft 48 kts 332°
2026-05-07 20:25 52.17171 20.96248 337 ft 36 kts 352°
2026-05-07 20:25 52.17374 20.96260 337 ft 18 kts 23°
2026-05-07 20:25 52.17440 20.96419 338 ft 12 kts 61°
2026-05-07 20:26 52.17466 20.96506 338 ft 6 kts 68°
2026-05-07 20:26 52.17460 20.96565 339 ft 5 kts 126°
2026-05-07 20:26 52.17436 20.96595 337 ft 4 kts 149°
2026-05-07 20:26 52.17396 20.96631 336 ft 10 kts 152°
2026-05-07 20:27 52.17322 20.96696 334 ft 13 kts 151°
2026-05-07 20:27 52.17251 20.96759 337 ft 11 kts 151°
2026-05-07 20:27 52.17187 20.96816 336 ft 10 kts 151°
2026-05-07 20:27 52.17131 20.96866 337 ft 8 kts 147°
2026-05-07 20:28 52.17127 20.96942 339 ft 6 kts 68°
2026-05-07 20:28 52.17141 20.96985 337 ft 3 kts 62°
2026-05-07 20:28 52.17148 20.97008 338 ft 1 kts 62°
2026-05-07 20:28 52.17150 20.97015 335 ft 0 kts 62°
2026-05-07 20:29 52.17151 20.97016 335 ft 0 kts 62°